• In Deutschland
  • Länderverzeichnis
  • Für 7 Tage
  • Wassertemperatur
  • Satellitenkarten
  • Wetterkarte
  • Widgets
  • user-avatar
    Anmelden

    Stündliche Wetter Arnsberg

    Heute, 17 Oktober, Dienstag

    Zeit Temperatur Niederschläge Wind Luftdruck Luftfeuchtigkeit
    00:00 +16°C° 0 mm 3 m/S 740 mmHg 74%
    01:00 +14°C° 0 mm 3 m/S 740 mmHg 74%
    02:00 +14°C° 0 mm 3 m/S 740 mmHg 76%
    03:00 +14°C° 0 mm 2 m/S 740 mmHg 78%
    04:00 +14°C° 0 mm 2 m/S 740 mmHg 81%
    05:00 +13°C° 0 mm 2 m/S 740 mmHg 83%
    06:00 +13°C° 0 mm 2 m/S 740 mmHg 86%
    07:00 +13°C° 0 mm 1 m/S 740 mmHg 88%
    08:00 +14°C° 0 mm 1 m/S 741 mmHg 84%
    09:00 +16°C° 0 mm 1 m/S 741 mmHg 79%
    10:00 +18°C° 0 mm 1 m/S 741 mmHg 75%
    11:00 +18°C° 0 mm 2 m/S 741 mmHg 72%
    12:00 +20°C° 0 mm 2 m/S 741 mmHg 69%
    13:00 +21°C° 0 mm 2 m/S 740 mmHg 66%
    14:00 +20°C° 0 mm 2 m/S 740 mmHg 68%
    15:00 +21°C° 0 mm 1 m/S 740 mmHg 70%
    16:00 +21°C° 0 mm 1 m/S 739 mmHg 72%
    17:00 +19°C° 0 mm 1 m/S 739 mmHg 77%
    18:00 +18°C° 0 mm 1 m/S 739 mmHg 82%
    19:00 +14°C° 0 mm 0 m/S 738 mmHg 88%
    20:00 +14°C° 0 mm 0 m/S 738 mmHg 88%
    21:00 +13°C° 0 mm 0 m/S 738 mmHg 89%
    22:00 +13°C° 0 mm 0 m/S 738 mmHg 90%
    23:00 +14°C° 0 mm 1 m/S 738 mmHg 90%

    Morgen, 18 Oktober, Mittwoch

    Zeit Temperatur Niederschläge Wind Luftdruck Luftfeuchtigkeit
    00:00 +14°C° 0 mm 1 m/S 738 mmHg 91%
    01:00 +13°C° 0 mm 1 m/S 737 mmHg 91%
    02:00 +13°C° 0 mm 1 m/S 737 mmHg 91%
    03:00 +13°C° 0 mm 1 m/S 737 mmHg 92%
    04:00 +12°C° 0 mm 1 m/S 736 mmHg 92%
    05:00 +12°C° 0 mm 1 m/S 736 mmHg 92%
    06:00 +12°C° 0 mm 1 m/S 736 mmHg 92%
    07:00 +12°C° 0 mm 1 m/S 736 mmHg 92%
    08:00 +13°C° 0 mm 1 m/S 736 mmHg 85%
    09:00 +15°C° 0 mm 2 m/S 736 mmHg 78%
    10:00 +16°C° 0 mm 2 m/S 736 mmHg 71%
    11:00 +17°C° 0 mm 2 m/S 736 mmHg 65%
    12:00 +18°C° 0 mm 2 m/S 735 mmHg 60%
    13:00 +20°C° 0 mm 2 m/S 735 mmHg 55%
    14:00 +19°C° 0 mm 2 m/S 735 mmHg 58%
    15:00 +19°C° 0 mm 2 m/S 734 mmHg 61%
    16:00 +20°C° 0 mm 1 m/S 734 mmHg 63%
    17:00 +18°C° 0 mm 1 m/S 734 mmHg 69%
    18:00 +15°C° 0 mm 1 m/S 734 mmHg 75%
    19:00 +14°C° 0 mm 1 m/S 734 mmHg 81%
    20:00 +13°C° 0 mm 2 m/S 734 mmHg 82%
    21:00 +13°C° 0 mm 2 m/S 734 mmHg 84%
    22:00 +12°C° 0 mm 2 m/S 734 mmHg 85%
    23:00 +12°C° 0 mm 2 m/S 734 mmHg 86%

    übermorgen, 19 Oktober, Donnerstag

    Zeit Temperatur Niederschläge Wind Luftdruck Luftfeuchtigkeit
    00:00 +12°C° 0 mm 2 m/S 734 mmHg 88%
    01:00 +12°C° 0 mm 2 m/S 734 mmHg 89%
    02:00 +12°C° 0 mm 2 m/S 734 mmHg 90%
    03:00 +12°C° 0 mm 2 m/S 734 mmHg 91%
    04:00 +10°C° 0 mm 2 m/S 733 mmHg 92%
    05:00 +10°C° 0 mm 2 m/S 733 mmHg 92%
    06:00 +10°C° 0 mm 2 m/S 733 mmHg 92%
    07:00 +10°C° 0 mm 2 m/S 733 mmHg 92%
    08:00 +13°C° 0 mm 2 m/S 733 mmHg 85%
    09:00 +14°C° 0 mm 2 m/S 734 mmHg 78%
    10:00 +16°C° 0 mm 3 m/S 734 mmHg 71%
    11:00 +17°C° 0 mm 3 m/S 734 mmHg 67%
    12:00 +19°C° 0 mm 3 m/S 733 mmHg 64%
    13:00 +20°C° 0 mm 4 m/S 733 mmHg 60%
    14:00 +20°C° 0 mm 3 m/S 733 mmHg 62%
    15:00 +19°C° 0 mm 3 m/S 733 mmHg 64%
    16:00 +19°C° 0 mm 3 m/S 733 mmHg 67%
    17:00 +18°C° 0 mm 3 m/S 733 mmHg 69%
    18:00 +17°C° 0 mm 3 m/S 733 mmHg 71%
    19:00 +16°C° 0 mm 3 m/S 733 mmHg 73%
    20:00 +16°C° 0 mm 3 m/S 732 mmHg 72%
    21:00 +14°C° 0 mm 3 m/S 732 mmHg 71%
    22:00 +14°C° 0 mm 4 m/S 732 mmHg 71%
    23:00 +14°C° 0,1 mm 4 m/S 732 mmHg 72%

    20 Oktober, Freitag

    Zeit Temperatur Niederschläge Wind Luftdruck Luftfeuchtigkeit
    00:00 +14°C° 0,1 mm 4 m/S 732 mmHg 72%
    01:00 +14°C° 0,1 mm 4 m/S 732 mmHg 73%
    02:00 +14°C° 0 mm 4 m/S 731 mmHg 74%
    03:00 +14°C° 0 mm 5 m/S 731 mmHg 75%
    04:00 +14°C° 0 mm 5 m/S 731 mmHg 77%
    05:00 +14°C° 0,1 mm 5 m/S 731 mmHg 78%
    06:00 +13°C° 0,1 mm 5 m/S 731 mmHg 80%
    07:00 +13°C° 0,1 mm 6 m/S 731 mmHg 82%
    08:00 +14°C° 0,1 mm 6 m/S 732 mmHg 80%
    09:00 +14°C° 0,1 mm 7 m/S 732 mmHg 78%
    10:00 +14°C° 0,1 mm 7 m/S 733 mmHg 76%
    11:00 +15°C° 0 mm 7 m/S 733 mmHg 71%
    12:00 +15°C° 0 mm 7 m/S 733 mmHg 65%
    13:00 +16°C° 0 mm 7 m/S 734 mmHg 60%
    14:00 +15°C° 0 mm 6 m/S 734 mmHg 61%
    15:00 +15°C° 0 mm 5 m/S 734 mmHg 63%
    16:00 +15°C° 0 mm 4 m/S 734 mmHg 64%
    17:00 +14°C° 0 mm 4 m/S 734 mmHg 70%
    18:00 +13°C° 0 mm 3 m/S 735 mmHg 76%
    19:00 +12°C° 0 mm 3 m/S 735 mmHg 82%
    20:00 +12°C° 0 mm 3 m/S 735 mmHg 84%
    21:00 +12°C° 0 mm 3 m/S 735 mmHg 86%
    22:00 +13°C° 0 mm 3 m/S 735 mmHg 89%
    23:00 +13°C° 0,5 mm 3 m/S 734 mmHg 89%

    21 Oktober, Samstag

    Zeit Temperatur Niederschläge Wind Luftdruck Luftfeuchtigkeit
    00:00 +13°C° 0,5 mm 3 m/S 734 mmHg 89%
    01:00 +14°C° 0,5 mm 3 m/S 734 mmHg 89%
    02:00 +14°C° 0 mm 3 m/S 733 mmHg 88%
    03:00 +14°C° 0 mm 4 m/S 733 mmHg 87%
    04:00 +14°C° 0 mm 4 m/S 732 mmHg 86%
    05:00 +14°C° 0,2 mm 4 m/S 732 mmHg 87%
    06:00 +14°C° 0,2 mm 4 m/S 732 mmHg 88%
    07:00 +13°C° 0,2 mm 4 m/S 732 mmHg 88%
    08:00 +14°C° 1,1 mm 4 m/S 732 mmHg 89%
    09:00 +14°C° 1,1 mm 5 m/S 732 mmHg 89%
    10:00 +14°C° 1,1 mm 5 m/S 732 mmHg 90%
    11:00 +14°C° 0,5 mm 5 m/S 732 mmHg 89%
    12:00 +14°C° 0,5 mm 5 m/S 732 mmHg 88%
    13:00 +15°C° 0,5 mm 5 m/S 732 mmHg 88%
    14:00 +14°C° 0,8 mm 5 m/S 732 mmHg 86%
    15:00 +14°C° 0,8 mm 5 m/S 733 mmHg 85%
    16:00 +13°C° 0,8 mm 4 m/S 733 mmHg 83%
    17:00 +13°C° 0 mm 4 m/S 733 mmHg 83%
    18:00 +12°C° 0 mm 4 m/S 733 mmHg 82%
    19:00 +11°C° 0 mm 4 m/S 733 mmHg 81%
    20:00 +11°C° 0 mm 4 m/S 733 mmHg 82%
    21:00 +10°C° 0 mm 4 m/S 733 mmHg 82%
    22:00 +9°C° 0 mm 5 m/S 733 mmHg 82%
    23:00 +9°C° 0 mm 5 m/S 733 mmHg 82%

    22 Oktober, Sonntag

    Zeit Temperatur Niederschläge Wind Luftdruck Luftfeuchtigkeit
    00:00 +8°C° 0 mm 5 m/S 733 mmHg 82%
    01:00 +8°C° 0 mm 5 m/S 733 mmHg 82%
    02:00 +8°C° 0 mm 5 m/S 733 mmHg 81%
    03:00 +7°C° 0 mm 5 m/S 733 mmHg 81%
    04:00 +7°C° 0 mm 5 m/S 732 mmHg 81%
    05:00 +7°C° 0 mm 5 m/S 732 mmHg 81%
    06:00 +7°C° 0 mm 5 m/S 732 mmHg 81%
    07:00 +6°C° 0 mm 5 m/S 733 mmHg 81%
    08:00 +7°C° 0 mm 6 m/S 733 mmHg 78%
    09:00 +7°C° 0 mm 6 m/S 733 mmHg 76%
    10:00 +8°C° 0 mm 7 m/S 733 mmHg 73%
    11:00 +8°C° 0 mm 7 m/S 733 mmHg 71%
    12:00 +8°C° 0 mm 7 m/S 733 mmHg 69%
    13:00 +9°C° 0 mm 7 m/S 733 mmHg 67%
    14:00 +9°C° 0,1 mm 7 m/S 733 mmHg 68%
    15:00 +9°C° 0,1 mm 6 m/S 733 mmHg 68%
    16:00 +9°C° 0,1 mm 6 m/S 733 mmHg 68%
    17:00 +8°C° 0,3 mm 6 m/S 733 mmHg 72%
    18:00 +8°C° 0,3 mm 6 m/S 733 mmHg 76%
    19:00 +7°C° 0,3 mm 6 m/S 733 mmHg 80%
    20:00 +7°C° 0,3 mm 6 m/S 734 mmHg 81%
    21:00 +7°C° 0,3 mm 6 m/S 734 mmHg 82%
    22:00 +7°C° 0,3 mm 6 m/S 734 mmHg 82%
    23:00 +7°C° 0 mm 6 m/S 734 mmHg 83%
    Mehr zeigen